Houston Hull, TX

11:15 AM CDT on June 25, 2017 (GMT -0500)
Sugar Land Municipal-Hull

Weather History for KSGR - November, 2013

Change the Weather History Date:

Sunday, November 3, 2013

  Actual Average Record
Temperature  
Mean Temperature 56 °F -  
Max Temperature 71 °F 74 °F 91 °F (1950)
Min Temperature 43 °F 52 °F 29 °F (1951)
Degree Days  
Heating Degree Days 8    
Growing Degree Days 6 (Base 50)    
Moisture  
Dew Point 48 °F    
Average Humidity 69    
Maximum Humidity 93    
Minimum Humidity 49    
Precipitation  
Precipitation 0.00 in - - ()
Sea Level Pressure  
Sea Level Pressure 30.16 in    
Wind  
Wind Speed 5 mph (East)    
Max Wind Speed 10 mph    
Max Gust Speed -    
Visibility 10 miles    
Events      
Averages and records for this station are not official NWS values.
T = Trace of Precipitation, MM = Missing Value Source: NWS Daily Summary

Daily Weather History Graph

Daily Weather History Graph

Search for Another Location

Airport or City:

Trip Planner

Search our weather history database for the weather conditions in past years. The results will help you decide how hot, cold, wet, or windy it might be!

Date:

Astronomy

Nov. 03, 2013 Rise Set
Actual Time 6:37 AM CST 5:34 PM CST
Civil Twilight 6:13 AM CST 5:58 PM CST
Nautical Twilight 5:44 AM CST 6:27 PM CST
Astronomical Twilight 5:16 AM CST 6:55 PM CST
Moon 6:41 AM CST (11/3) 5:52 PM CST (11/3)
Length of Visible Light 11h 45m
Length of Day
10h 56m
New Moon, 0% of the Moon is Illuminated
Nov 3
New Moon
Nov 9
First Quarter
Nov 17
Full
Nov 25
Last Quarter
Dec 2
New

Hourly Weather History & Observations

Time (CST) Temp. Dew Point Humidity Pressure Visibility Wind Dir Wind Speed Gust Speed Precip Events Conditions
12:53 AM 51.1 °F 42.1 °F 71% 30.22 in 10.0 mi North 3.5 mph - N/A   Clear
1:53 AM 48.0 °F 43.0 °F 83% 30.21 in 10.0 mi Calm Calm - N/A   Clear
1:53 AM 48.0 °F 43.0 °F 83% 30.22 in 10.0 mi NNE 3.5 mph - N/A   Clear
2:53 AM 46.9 °F 44.1 °F 90% 30.20 in 10.0 mi NNE 4.6 mph - N/A   Clear
3:53 AM 48.9 °F 44.1 °F 83% 30.20 in 10.0 mi NE 3.5 mph - N/A   Clear
4:53 AM 46.9 °F 42.1 °F 83% 30.19 in 10.0 mi NNE 4.6 mph - N/A   Clear
5:53 AM 46.0 °F 42.1 °F 86% 30.20 in 10.0 mi Calm Calm - N/A   Clear
6:53 AM 43.0 °F 41.0 °F 93% 30.21 in 10.0 mi Calm Calm - N/A   Clear
7:53 AM 53.1 °F 46.0 °F 77% 30.22 in 10.0 mi NE 4.6 mph - N/A   Clear
8:53 AM 59.0 °F 48.0 °F 67% 30.22 in 10.0 mi East 8.1 mph - N/A   Clear
9:41 AM 62.6 °F 48.2 °F 59% 30.20 in 10.0 mi East 8.1 mph - N/A   Partly Cloudy
9:53 AM 63.0 °F 48.9 °F 60% 30.21 in 10.0 mi East 9.2 mph - N/A   Clear
10:53 AM 66.9 °F 51.1 °F 57% 30.19 in 10.0 mi ESE 8.1 mph - N/A   Clear
11:53 AM 69.1 °F 48.9 °F 49% 30.17 in 10.0 mi SE 8.1 mph - N/A   Clear
12:53 PM 70.0 °F 51.1 °F 51% 30.12 in 10.0 mi East 9.2 mph - N/A   Mostly Cloudy
1:53 PM 69.1 °F 50.0 °F 51% 30.10 in 10.0 mi SSE 10.4 mph - N/A   Mostly Cloudy
2:53 PM 69.1 °F 50.0 °F 51% 30.10 in 10.0 mi SSE 9.2 mph - N/A   Overcast
3:53 PM 68.0 °F 50.0 °F 52% 30.09 in 10.0 mi ESE 5.8 mph - N/A   Mostly Cloudy
4:53 PM 66.0 °F 52.0 °F 60% 30.09 in 10.0 mi ESE 10.4 mph - N/A   Clear
5:53 PM 63.0 °F 52.0 °F 67% 30.10 in 10.0 mi East 8.1 mph - N/A   Clear
6:53 PM 62.1 °F 52.0 °F 70% 30.12 in 10.0 mi East 9.2 mph - N/A   Clear
7:53 PM 61.0 °F 52.0 °F 72% 30.13 in 10.0 mi East 8.1 mph - N/A   Partly Cloudy
8:53 PM 60.1 °F 51.1 °F 72% 30.12 in 10.0 mi ESE 8.1 mph - N/A   Clear
9:53 PM 59.0 °F 50.0 °F 72% 30.12 in 10.0 mi East 5.8 mph - N/A   Clear
10:53 PM 57.9 °F 50.0 °F 75% 30.11 in 10.0 mi Calm Calm - N/A   Clear